Location: Chamerau
(49.1969°N, 12.7525°E)
Time: 08:39:07
(UTC+00:00)

Cosmos 1300 Rocket - Pass Details

Date: 18 September 2020
Orbit: 601 x 627 km, 82.5° (Epoch: 24 October)

Event Time Altitude Azimuth Distance (km) Brightness Sun altitude
Rises 18:16:46 0° 169° (S) 2,877 6.7 -10.8°
Reaches altitude 10° 18:19:03 10° 162° (SSE) 1,980 5.8 -11.2°
Maximum altitude 18:23:10 42° 93° (E) 899 3.9 -11.8°
Drops below altitude 10° 18:27:22 10° 23° (NNE) 2,008 6.1 -12.5°
Sets 18:29:42 0° 16° (NNE) 2,923 7.0 -12.8°
